• în Republica Moldova
  • Lista ţărilor
  • Pe 7 zile
  • Temperatura apei
  • Hartă satelitară
  • Meteo pe hartă
  • Widget-uri
  • user-avatar
    Intrare

    Meteo pe oră la Polotsk

    Astăzi, 21 Octombrie, Duminică

    Timp Temperatura Precipitaţii Vânt Presiune Umiditate
    00:00 +4°C° 0 mm 0 m/s 753 mmHg 82%
    01:00 +3°C° 0 mm 0 m/s 753 mmHg 83%
    02:00 +3°C° 0 mm 0 m/s 754 mmHg 85%
    03:00 +3°C° 0 mm 0 m/s 754 mmHg 85%
    04:00 +3°C° 0 mm 0 m/s 754 mmHg 86%
    05:00 +2°C° 0 mm 0 m/s 754 mmHg 87%
    06:00 +3°C° 0 mm 0 m/s 754 mmHg 86%
    07:00 +3°C° 0 mm 0 m/s 755 mmHg 85%
    08:00 +4°C° 0 mm 0 m/s 755 mmHg 79%
    09:00 +6°C° 0 mm 0 m/s 755 mmHg 73%
    10:00 +7°C° 0 mm 0 m/s 755 mmHg 68%
    11:00 +9°C° 0 mm 0 m/s 755 mmHg 62%
    12:00 +9°C° 0 mm 0 m/s 755 mmHg 60%
    13:00 +10°C° 0 mm 0 m/s 755 mmHg 58%
    14:00 +11°C° 0 mm 1 m/s 755 mmHg 56%
    15:00 +10°C° 0 mm 1 m/s 755 mmHg 61%
    16:00 +9°C° 0 mm 1 m/s 755 mmHg 67%
    17:00 +7°C° 0 mm 1 m/s 755 mmHg 72%
    18:00 +7°C° 0 mm 1 m/s 755 mmHg 75%
    19:00 +6°C° 0 mm 1 m/s 755 mmHg 78%
    20:00 +6°C° 0 mm 1 m/s 755 mmHg 80%
    21:00 +6°C° 0 mm 1 m/s 755 mmHg 82%
    22:00 +5°C° 0 mm 1 m/s 755 mmHg 84%
    23:00 +4°C° 0 mm 2 m/s 755 mmHg 86%

    Mâine, 22 Octombrie, Luni

    Timp Temperatura Precipitaţii Vânt Presiune Umiditate
    00:00 +4°C° 0 mm 2 m/s 755 mmHg 87%
    01:00 +4°C° 0 mm 2 m/s 755 mmHg 89%
    02:00 +3°C° 0 mm 2 m/s 755 mmHg 90%
    03:00 +3°C° 0 mm 2 m/s 754 mmHg 91%
    04:00 +3°C° 0 mm 2 m/s 754 mmHg 92%
    05:00 +2°C° 0 mm 3 m/s 753 mmHg 93%
    06:00 +2°C° 0 mm 3 m/s 753 mmHg 92%
    07:00 +3°C° 0 mm 3 m/s 753 mmHg 91%
    08:00 +3°C° 0 mm 3 m/s 753 mmHg 90%
    09:00 +5°C° 0 mm 4 m/s 752 mmHg 83%
    10:00 +6°C° 0 mm 4 m/s 752 mmHg 77%
    11:00 +8°C° 0 mm 5 m/s 752 mmHg 70%
    12:00 +8°C° 0 mm 5 m/s 751 mmHg 68%
    13:00 +9°C° 0 mm 5 m/s 750 mmHg 67%
    14:00 +10°C° 0 mm 5 m/s 750 mmHg 65%
    15:00 +9°C° 0 mm 5 m/s 749 mmHg 68%
    16:00 +8°C° 0 mm 5 m/s 748 mmHg 71%
    17:00 +8°C° 0 mm 4 m/s 748 mmHg 74%
    18:00 +7°C° 0.2 mm 4 m/s 747 mmHg 76%
    19:00 +7°C° 0.2 mm 4 m/s 747 mmHg 79%
    20:00 +7°C° 0.2 mm 5 m/s 747 mmHg 81%
    21:00 +7°C° 0.5 mm 4 m/s 747 mmHg 84%
    22:00 +7°C° 0.5 mm 4 m/s 746 mmHg 86%
    23:00 +7°C° 0.5 mm 4 m/s 746 mmHg 89%

    Poimâine, 23 Octombrie, Marţi

    Timp Temperatura Precipitaţii Vânt Presiune Umiditate
    00:00 +6°C° 0.2 mm 4 m/s 746 mmHg 89%
    01:00 +5°C° 0.2 mm 3 m/s 746 mmHg 90%
    02:00 +4°C° 0.2 mm 3 m/s 746 mmHg 91%
    03:00 +3°C° 0 mm 3 m/s 746 mmHg 92%
    04:00 +3°C° 0 mm 3 m/s 745 mmHg 92%
    05:00 +3°C° 0 mm 2 m/s 745 mmHg 93%
    06:00 +3°C° 0 mm 2 m/s 745 mmHg 92%
    07:00 +3°C° 0 mm 2 m/s 745 mmHg 90%
    08:00 +3°C° 0 mm 2 m/s 745 mmHg 89%
    09:00 +4°C° 0 mm 2 m/s 744 mmHg 83%
    10:00 +4°C° 0 mm 3 m/s 743 mmHg 77%
    11:00 +5°C° 0 mm 3 m/s 743 mmHg 72%
    12:00 +7°C° 0 mm 3 m/s 742 mmHg 68%
    13:00 +6°C° 0 mm 4 m/s 741 mmHg 65%
    14:00 +7°C° 0 mm 4 m/s 740 mmHg 62%
    15:00 +6°C° 0 mm 5 m/s 738 mmHg 67%
    16:00 +5°C° 0 mm 5 m/s 737 mmHg 71%
    17:00 +3°C° 0 mm 5 m/s 736 mmHg 75%
    18:00 +3°C° 0.1 mm 5 m/s 734 mmHg 76%
    19:00 +3°C° 0.1 mm 6 m/s 733 mmHg 77%
    20:00 +3°C° 0.1 mm 6 m/s 731 mmHg 79%
    21:00 +3°C° 0.7 mm 7 m/s 730 mmHg 79%
    22:00 +3°C° 0.7 mm 7 m/s 728 mmHg 80%
    23:00 +3°C° 0.7 mm 7 m/s 727 mmHg 81%

    24 Octombrie, Miercuri

    Timp Temperatura Precipitaţii Vânt Presiune Umiditate
    00:00 +3°C° 1.1 mm 6 m/s 726 mmHg 83%
    01:00 +3°C° 1.1 mm 6 m/s 724 mmHg 84%
    02:00 +3°C° 1.1 mm 5 m/s 723 mmHg 86%
    03:00 +3°C° 0.7 mm 5 m/s 723 mmHg 88%
    04:00 +4°C° 0.7 mm 4 m/s 722 mmHg 89%
    05:00 +4°C° 0.7 mm 4 m/s 722 mmHg 91%
    06:00 +4°C° 0.2 mm 4 m/s 722 mmHg 91%
    07:00 +4°C° 0.2 mm 4 m/s 722 mmHg 90%
    08:00 +4°C° 0.2 mm 4 m/s 722 mmHg 90%
    09:00 +5°C° 0.1 mm 4 m/s 723 mmHg 87%
    10:00 +5°C° 0.1 mm 4 m/s 723 mmHg 85%
    11:00 +5°C° 0.1 mm 4 m/s 723 mmHg 83%
    12:00 +5°C° 0 mm 4 m/s 724 mmHg 83%
    13:00 +5°C° 0 mm 4 m/s 724 mmHg 83%
    14:00 +5°C° 0 mm 4 m/s 724 mmHg 83%
    15:00 +5°C° 0.1 mm 4 m/s 725 mmHg 84%
    16:00 +5°C° 0.1 mm 4 m/s 725 mmHg 85%
    17:00 +5°C° 0.1 mm 4 m/s 726 mmHg 86%
    18:00 +5°C° 0 mm 5 m/s 726 mmHg 85%
    19:00 +3°C° 0 mm 5 m/s 727 mmHg 85%
    20:00 +3°C° 0 mm 6 m/s 727 mmHg 85%
    21:00 +3°C° 0.1 mm 6 m/s 727 mmHg 85%
    22:00 +3°C° 0.1 mm 6 m/s 728 mmHg 84%
    23:00 +3°C° 0.1 mm 7 m/s 728 mmHg 84%

    25 Octombrie, Joi

    Timp Temperatura Precipitaţii Vânt Presiune Umiditate
    00:00 +3°C° 0.2 mm 7 m/s 728 mmHg 83%
    01:00 +2°C° 0.2 mm 7 m/s 729 mmHg 83%
    02:00 +2°C° 0.2 mm 7 m/s 729 mmHg 82%
    03:00 +2°C° 0.1 mm 7 m/s 729 mmHg 82%
    04:00 +2°C° 0.1 mm 7 m/s 730 mmHg 82%
    05:00 +2°C° 0.1 mm 7 m/s 730 mmHg 82%
    06:00 +2°C° 0.1 mm 7 m/s 730 mmHg 81%
    07:00 +2°C° 0.1 mm 7 m/s 730 mmHg 81%
    08:00 +2°C° 0.1 mm 7 m/s 730 mmHg 80%
    09:00 +2°C° 0 mm 7 m/s 730 mmHg 77%
    10:00 +3°C° 0 mm 7 m/s 731 mmHg 74%
    11:00 +3°C° 0 mm 7 m/s 731 mmHg 72%
    12:00 +3°C° 0 mm 7 m/s 731 mmHg 70%
    13:00 +4°C° 0 mm 6 m/s 731 mmHg 68%
    14:00 +4°C° 0 mm 6 m/s 731 mmHg 65%
    15:00 +3°C° 0 mm 6 m/s 731 mmHg 69%
    16:00 +3°C° 0 mm 5 m/s 731 mmHg 72%
    17:00 +3°C° 0 mm 4 m/s 731 mmHg 75%
    18:00 +3°C° 0 mm 4 m/s 731 mmHg 78%
    19:00 +1°C° 0 mm 4 m/s 732 mmHg 80%
    20:00 +1°C° 0 mm 4 m/s 732 mmHg 83%
    21:00 +1°C° 0 mm 4 m/s 732 mmHg 84%
    22:00 0°C° 0 mm 4 m/s 732 mmHg 86%
    23:00 0°C° 0 mm 4 m/s 732 mmHg 88%

    26 Octombrie, Vineri

    Timp Temperatura Precipitaţii Vânt Presiune Umiditate
    00:00 0°C° 0 mm 4 m/s 732 mmHg 89%
    01:00 +1°C° 0 mm 3 m/s 733 mmHg 90%
    02:00 0°C° 0 mm 3 m/s 733 mmHg 91%
    03:00 0°C° 0 mm 3 m/s 733 mmHg 92%
    04:00 0°C° 0 mm 3 m/s 733 mmHg 93%
    05:00 0°C° 0 mm 3 m/s 734 mmHg 94%
    06:00 +1°C° 0 mm 3 m/s 734 mmHg 93%
    07:00 +1°C° 0 mm 3 m/s 734 mmHg 92%
    08:00 +2°C° 0 mm 3 m/s 735 mmHg 91%
    09:00 +3°C° 0 mm 3 m/s 735 mmHg 86%
    10:00 +3°C° 0 mm 4 m/s 736 mmHg 80%
    11:00 +4°C° 0 mm 4 m/s 736 mmHg 74%
    12:00 +5°C° 0.1 mm 4 m/s 737 mmHg 71%
    13:00 +5°C° 0.1 mm 4 m/s 737 mmHg 69%
    14:00 +5°C° 0.1 mm 4 m/s 737 mmHg 66%
    15:00 +4°C° 0 mm 4 m/s 738 mmHg 71%
    16:00 +4°C° 0 mm 3 m/s 738 mmHg 77%
    17:00 +4°C° 0 mm 2 m/s 738 mmHg 82%
    18:00 +3°C° 0 mm 2 m/s 738 mmHg 84%
    19:00 +3°C° 0 mm 2 m/s 739 mmHg 86%
    20:00 +2°C° 0 mm 2 m/s 739 mmHg 88%
    21:00 +2°C° 0 mm 3 m/s 738 mmHg 87%
    22:00 +2°C° 0 mm 3 m/s 738 mmHg 86%
    23:00 +1°C° 0 mm 4 m/s 738 mmHg 85%
    Arată mai mult